When you browse on this site, cookies collect data to enhance your experience and personalize the content and advertising you see.
Visit our Privacy Policy to learn more. By continuing to use the site, you agree to this use of cookies and data.
  • în România
  • Lista ţărilor
  • Pe 7 zile
  • Temperatura apei
  • Hartă satelitară
  • Meteo pe hartă
  • Widget-uri
  • user-avatar
    Intrare

    Meteo pe oră la Kraskow

    Astăzi, 22 Februarie, Vineri

    Timp Temperatura Precipitaţii Vânt Presiune Umiditate
    00:00 +6°C° 1.1 mm 5 m/s 749 mmHg 91%
    01:00 +5°C° 0 mm 4 m/s 749 mmHg 91%
    02:00 +5°C° 0.7 mm 4 m/s 749 mmHg 92%
    03:00 +5°C° 0.7 mm 5 m/s 749 mmHg 93%
    04:00 +6°C° 0.7 mm 5 m/s 750 mmHg 94%
    05:00 +3°C° 0.2 mm 6 m/s 751 mmHg 92%
    06:00 +2°C° 0.2 mm 6 m/s 752 mmHg 89%
    07:00 +1°C° 0 mm 5 m/s 753 mmHg 85%
    08:00 0°C° 0 mm 5 m/s 754 mmHg 81%
    09:00 -2°C° 0 mm 6 m/s 755 mmHg 77%
    10:00 -3°C° 0 mm 6 m/s 757 mmHg 74%
    11:00 -2°C° 0 mm 6 m/s 757 mmHg 66%
    12:00 -2°C° 0 mm 6 m/s 758 mmHg 59%
    13:00 -1°C° 0 mm 6 m/s 759 mmHg 51%
    14:00 -1°C° 0 mm 5 m/s 760 mmHg 50%
    15:00 -1°C° 0 mm 5 m/s 760 mmHg 48%
    16:00 -1°C° 0 mm 5 m/s 761 mmHg 47%
    17:00 -2°C° 0 mm 4 m/s 761 mmHg 50%
    18:00 -3°C° 0 mm 4 m/s 762 mmHg 54%
    19:00 -4°C° 0 mm 3 m/s 763 mmHg 58%
    20:00 -4°C° 0 mm 3 m/s 764 mmHg 57%
    21:00 -4°C° 0 mm 3 m/s 764 mmHg 57%
    22:00 -4°C° 0 mm 2 m/s 765 mmHg 56%
    23:00 -4°C° 0 mm 2 m/s 765 mmHg 54%

    Mâine, 23 Februarie, Sâmbătă

    Timp Temperatura Precipitaţii Vânt Presiune Umiditate
    00:00 -4°C° 0 mm 2 m/s 765 mmHg 52%
    01:00 -4°C° 0 mm 2 m/s 766 mmHg 49%
    02:00 -4°C° 0 mm 2 m/s 766 mmHg 49%
    03:00 -2°C° 0 mm 1 m/s 766 mmHg 48%
    04:00 -2°C° 0 mm 1 m/s 766 mmHg 47%
    05:00 -2°C° 0 mm 1 m/s 766 mmHg 46%
    06:00 -2°C° 0 mm 1 m/s 766 mmHg 46%
    07:00 -2°C° 0 mm 1 m/s 766 mmHg 46%
    08:00 -2°C° 0 mm 1 m/s 766 mmHg 41%
    09:00 -1°C° 0 mm 1 m/s 766 mmHg 36%
    10:00 -2°C° 0 mm 2 m/s 766 mmHg 31%
    11:00 -1°C° 0 mm 2 m/s 766 mmHg 29%
    12:00 +1°C° 0 mm 2 m/s 766 mmHg 27%
    13:00 +1°C° 0 mm 2 m/s 765 mmHg 24%
    14:00 +1°C° 0 mm 2 m/s 765 mmHg 25%
    15:00 +1°C° 0 mm 2 m/s 765 mmHg 27%
    16:00 +1°C° 0 mm 2 m/s 764 mmHg 28%
    17:00 -1°C° 0 mm 2 m/s 764 mmHg 31%
    18:00 -2°C° 0 mm 2 m/s 764 mmHg 35%
    19:00 -1°C° 0 mm 1 m/s 764 mmHg 38%
    20:00 -1°C° 0 mm 1 m/s 764 mmHg 38%
    21:00 -3°C° 0 mm 2 m/s 764 mmHg 38%
    22:00 -3°C° 0 mm 2 m/s 764 mmHg 38%
    23:00 -1°C° 0 mm 1 m/s 764 mmHg 37%

    Poimâine, 24 Februarie, Duminică

    Timp Temperatura Precipitaţii Vânt Presiune Umiditate
    00:00 0°C° 0 mm 1 m/s 764 mmHg 36%
    01:00 0°C° 0 mm 1 m/s 763 mmHg 35%
    02:00 0°C° 0 mm 1 m/s 763 mmHg 33%
    03:00 +1°C° 0 mm 1 m/s 763 mmHg 32%
    04:00 0°C° 0 mm 0 m/s 763 mmHg 31%
    05:00 0°C° 0 mm 0 m/s 763 mmHg 31%
    06:00 +1°C° 0 mm 1 m/s 763 mmHg 31%
    07:00 +1°C° 0 mm 1 m/s 763 mmHg 30%
    08:00 +3°C° 0 mm 1 m/s 763 mmHg 29%
    09:00 +4°C° 0 mm 1 m/s 763 mmHg 27%
    10:00 +5°C° 0 mm 1 m/s 763 mmHg 25%
    11:00 +6°C° 0 mm 1 m/s 763 mmHg 25%
    12:00 +6°C° 0 mm 2 m/s 763 mmHg 26%
    13:00 +8°C° 0 mm 2 m/s 762 mmHg 26%
    14:00 +7°C° 0 mm 2 m/s 762 mmHg 32%
    15:00 +7°C° 0 mm 2 m/s 762 mmHg 39%
    16:00 +6°C° 0 mm 2 m/s 762 mmHg 45%
    17:00 +5°C° 0 mm 2 m/s 762 mmHg 47%
    18:00 +4°C° 0 mm 2 m/s 762 mmHg 50%
    19:00 +2°C° 0 mm 2 m/s 762 mmHg 52%
    20:00 +2°C° 0 mm 2 m/s 762 mmHg 53%
    21:00 +2°C° 0 mm 2 m/s 763 mmHg 53%
    22:00 +2°C° 0 mm 2 m/s 763 mmHg 54%
    23:00 +2°C° 0 mm 2 m/s 763 mmHg 55%

    25 Februarie, Luni

    Timp Temperatura Precipitaţii Vânt Presiune Umiditate
    00:00 +2°C° 0 mm 2 m/s 763 mmHg 55%
    01:00 +2°C° 0 mm 2 m/s 763 mmHg 55%
    02:00 +2°C° 0 mm 2 m/s 763 mmHg 56%
    03:00 +2°C° 0 mm 2 m/s 762 mmHg 57%
    04:00 +1°C° 0 mm 2 m/s 762 mmHg 58%
    05:00 +1°C° 0 mm 2 m/s 762 mmHg 59%
    06:00 +1°C° 0 mm 2 m/s 762 mmHg 60%
    07:00 +1°C° 0 mm 2 m/s 763 mmHg 61%
    08:00 +3°C° 0 mm 2 m/s 763 mmHg 58%
    09:00 +3°C° 0 mm 3 m/s 763 mmHg 55%
    10:00 +5°C° 0 mm 3 m/s 763 mmHg 52%
    11:00 +7°C° 0 mm 3 m/s 763 mmHg 52%
    12:00 +8°C° 0 mm 3 m/s 763 mmHg 52%
    13:00 +9°C° 0 mm 3 m/s 762 mmHg 52%
    14:00 +9°C° 0 mm 2 m/s 762 mmHg 54%
    15:00 +9°C° 0 mm 2 m/s 762 mmHg 57%
    16:00 +9°C° 0 mm 2 m/s 762 mmHg 60%
    17:00 +7°C° 0 mm 2 m/s 762 mmHg 63%
    18:00 +6°C° 0 mm 2 m/s 762 mmHg 67%
    19:00 +5°C° 0 mm 2 m/s 762 mmHg 71%
    20:00 +5°C° 0 mm 2 m/s 761 mmHg 70%
    21:00 +4°C° 0 mm 2 m/s 761 mmHg 70%
    22:00 +4°C° 0 mm 2 m/s 761 mmHg 70%
    23:00 +4°C° 0 mm 2 m/s 761 mmHg 68%

    26 Februarie, Marţi

    Timp Temperatura Precipitaţii Vânt Presiune Umiditate
    00:00 +4°C° 0 mm 2 m/s 760 mmHg 66%
    01:00 +4°C° 0 mm 2 m/s 760 mmHg 65%
    02:00 +3°C° 0 mm 3 m/s 760 mmHg 65%
    03:00 +3°C° 0 mm 3 m/s 759 mmHg 66%
    04:00 +3°C° 0 mm 3 m/s 759 mmHg 66%
    05:00 +3°C° 0 mm 3 m/s 758 mmHg 68%
    06:00 +3°C° 0 mm 4 m/s 758 mmHg 70%
    07:00 +3°C° 0 mm 4 m/s 758 mmHg 72%
    08:00 +5°C° 0 mm 5 m/s 758 mmHg 67%
    09:00 +5°C° 0 mm 6 m/s 758 mmHg 62%
    10:00 +8°C° 0 mm 6 m/s 757 mmHg 58%
    11:00 +9°C° 0 mm 7 m/s 757 mmHg 53%
    12:00 +10°C° 0 mm 7 m/s 757 mmHg 48%
    13:00 +11°C° 0 mm 7 m/s 756 mmHg 43%
    14:00 +10°C° 0 mm 6 m/s 756 mmHg 48%
    15:00 +10°C° 0 mm 6 m/s 756 mmHg 53%
    16:00 +9°C° 0 mm 5 m/s 756 mmHg 58%
    17:00 +8°C° 0 mm 4 m/s 756 mmHg 62%
    18:00 +8°C° 0 mm 4 m/s 756 mmHg 66%
    19:00 +8°C° 0 mm 3 m/s 756 mmHg 70%
    20:00 +7°C° 0 mm 3 m/s 756 mmHg 75%
    21:00 +5°C° 0 mm 3 m/s 757 mmHg 80%
    22:00 +5°C° 0 mm 2 m/s 757 mmHg 85%
    23:00 +5°C° 0 mm 2 m/s 757 mmHg 87%

    27 Februarie, Miercuri

    Timp Temperatura Precipitaţii Vânt Presiune Umiditate
    00:00 +4°C° 0 mm 2 m/s 757 mmHg 90%
    01:00 +4°C° 0 mm 2 m/s 756 mmHg 92%
    02:00 +3°C° 0 mm 2 m/s 756 mmHg 92%
    03:00 +3°C° 0 mm 2 m/s 756 mmHg 93%
    04:00 +3°C° 0 mm 2 m/s 756 mmHg 93%
    05:00 +3°C° 0 mm 2 m/s 756 mmHg 93%
    06:00 +2°C° 0 mm 2 m/s 756 mmHg 93%
    07:00 +3°C° 0 mm 1 m/s 756 mmHg 93%
    08:00 +5°C° 0 mm 1 m/s 756 mmHg 86%
    09:00 +6°C° 0 mm 1 m/s 756 mmHg 80%
    10:00 +8°C° 0 mm 1 m/s 755 mmHg 73%
    11:00 +9°C° 0 mm 1 m/s 755 mmHg 65%
    12:00 +11°C° 0 mm 1 m/s 755 mmHg 56%
    13:00 +12°C° 0 mm 1 m/s 754 mmHg 47%
    14:00 +12°C° 0 mm 1 m/s 754 mmHg 49%
    15:00 +13°C° 0 mm 1 m/s 753 mmHg 50%
    16:00 +13°C° 0 mm 1 m/s 752 mmHg 52%
    17:00 +12°C° 0 mm 1 m/s 752 mmHg 59%
    18:00 +10°C° 0 mm 1 m/s 752 mmHg 66%
    19:00 +9°C° 0 mm 1 m/s 751 mmHg 73%
    20:00 +7°C° 0 mm 2 m/s 751 mmHg 76%
    21:00 +7°C° 0 mm 2 m/s 750 mmHg 80%
    22:00 +7°C° 0 mm 2 m/s 750 mmHg 84%
    23:00 +7°C° 0 mm 2 m/s 750 mmHg 83%
    Arată mai mult